Powrót do katalogu

CZ-2C R/B

AktywnyVLEO
NORAD 48427·ROCKET BODY·🇨🇳 China

Wystrzelony May 6, 2021 z Xichang Satellite Launch Center

Loading…

Następne Przeloty (najbliższe 24 godziny)

TLE

ŚwieżeSource: Space-Track

Epoka: Sep 14, 2026, 10:51 UTC

1 48427U 21039E   26257.45267391  .00938663  54327-3  67577-3 0  9993
2 48427  34.9657 269.8897 0004860 237.2250 122.8024 16.14912265299814

Śledź CZ-2C R/B w czasie rzeczywistym z AllMySat

Download on the App Store